Midlothian, TX

8:12 PM CST on February 25, 2018 (GMT -0600)
Midlothian

Weather History for KJWY - January, 2013

Change the Weather History Date:

Tuesday, January 8, 2013

  Actual Average (KRBD) Record (KRBD)
Temperature  
Mean Temperature 46 °F -  
Max Temperature 48 °F 54 °F 80 °F (2006)
Min Temperature 44 °F 36 °F 19 °F (2015)
Degree Days  
Heating Degree Days 19    
Moisture  
Dew Point 40 °F    
Average Humidity 82    
Maximum Humidity 100    
Minimum Humidity 61    
Precipitation  
Precipitation 0.36 in - - ()
Sea Level Pressure  
Sea Level Pressure 30.05 in    
Wind  
Wind Speed 5 mph (NE)    
Max Wind Speed 15 mph    
Max Gust Speed -    
Visibility 7 miles    
Events Rain    
Averages and records for this station are not official NWS values.
T = Trace of Precipitation, MM = Missing Value Source: NWS Daily Summary

Daily Weather History Graph

Daily Weather History Graph

Search for Another Location

Airport or City:

Trip Planner

Search our weather history database for the weather conditions in past years. The results will help you decide how hot, cold, wet, or windy it might be!

Date:

Astronomy

Jan. 08, 2013 Rise Set
Actual Time 7:30 AM CST 5:39 PM CST
Civil Twilight 7:03 AM CST 6:06 PM CST
Nautical Twilight 6:32 AM CST 6:36 PM CST
Astronomical Twilight 6:03 AM CST 7:06 PM CST
Moon 4:05 AM CST (1/8) 2:42 PM CST (1/8)
Length of Visible Light 11h 02m
Length of Day
10h 09m
Waning Crescent, 13% of the Moon is Illuminated
Jan 8
Waning Crescent
Jan 11
New
Jan 18
First Quarter
Jan 26
Full
Feb 3
Last Quarter

Hourly Weather History & Observations

Time (CST) Temp. Windchill Dew Point Humidity Pressure Visibility Wind Dir Wind Speed Gust Speed Precip Events Conditions
12:15 AM 44.6 °F 42.2 °F 32.0 °F 61% 30.12 in 10.0 mi ESE 4.6 mph - N/A   Overcast
12:55 AM 44.6 °F 42.2 °F 32.0 °F 61% 30.11 in 10.0 mi SE 4.6 mph - N/A   Overcast
1:55 AM 44.6 °F 42.2 °F 33.8 °F 66% 30.10 in 10.0 mi ESE 4.6 mph - N/A   Overcast
2:15 AM 44.6 °F - 33.8 °F 66% 30.10 in 10.0 mi Calm Calm - N/A   Overcast
2:35 AM 44.6 °F 42.2 °F 33.8 °F 66% 30.09 in 10.0 mi ESE 4.6 mph - N/A   Overcast
2:55 AM 44.6 °F 42.2 °F 33.8 °F 66% 30.09 in 10.0 mi East 4.6 mph - N/A   Overcast
3:15 AM 44.6 °F - 33.8 °F 66% 30.09 in 10.0 mi Calm Calm - N/A   Overcast
3:35 AM 44.6 °F 43.1 °F 33.8 °F 66% 30.09 in 10.0 mi ENE 3.5 mph - N/A   Overcast
3:55 AM 44.6 °F - 33.8 °F 66% 30.09 in 10.0 mi Calm Calm - N/A   Overcast
4:15 AM 44.6 °F 43.1 °F 33.8 °F 66% 30.08 in 10.0 mi East 3.5 mph - N/A   Overcast
4:35 AM 44.6 °F 43.1 °F 33.8 °F 66% 30.08 in 10.0 mi East 3.5 mph - N/A   Overcast
4:55 AM 44.6 °F 43.1 °F 33.8 °F 66% 30.08 in 10.0 mi ENE 3.5 mph - N/A   Overcast
5:15 AM 44.6 °F 42.2 °F 33.8 °F 66% 30.07 in 10.0 mi ENE 4.6 mph - N/A   Overcast
5:35 AM 44.6 °F 41.4 °F 33.8 °F 66% 30.07 in 10.0 mi ENE 5.8 mph - N/A   Overcast
5:55 AM 44.6 °F 41.4 °F 33.8 °F 66% 30.07 in 10.0 mi ENE 5.8 mph - N/A   Overcast
6:35 AM 44.6 °F 42.2 °F 35.6 °F 71% 30.07 in 10.0 mi ENE 4.6 mph - N/A   Overcast
6:55 AM 44.6 °F 42.2 °F 35.6 °F 71% 30.07 in 10.0 mi NE 4.6 mph - N/A   Light Drizzle
7:15 AM 44.6 °F 41.4 °F 35.6 °F 71% 30.07 in 10.0 mi ENE 5.8 mph - N/A   Overcast
9:35 AM 44.6 °F 41.4 °F 39.2 °F 81% 30.09 in 10.0 mi NNE 5.8 mph - N/A   Drizzle
9:55 AM 44.6 °F 42.2 °F 41.0 °F 87% 30.11 in 10.0 mi ENE 4.6 mph - N/A   Overcast
10:15 AM 44.6 °F 40.7 °F 41.0 °F 87% 30.09 in 7.0 mi NE 6.9 mph - N/A   Light Drizzle
11:15 AM 44.6 °F 40.7 °F 42.8 °F 93% 30.06 in 3.0 mi ENE 6.9 mph - N/A   Overcast
12:35 PM 44.6 °F 41.4 °F 44.6 °F 100% 30.01 in 1.8 mi NE 5.8 mph - N/A   Drizzle
12:55 PM 44.6 °F 40.7 °F 44.6 °F 100% 30.01 in 4.0 mi ENE 6.9 mph - 0.01 in   Light Drizzle
1:35 PM 44.6 °F 41.4 °F 44.6 °F 100% 29.98 in 2.5 mi ENE 5.8 mph - 0.02 in Rain Rain
1:55 PM 46.4 °F 43.5 °F 44.6 °F 93% 29.97 in 4.0 mi NNE 5.8 mph - 0.02 in   Overcast
2:15 PM 46.4 °F 43.5 °F 44.6 °F 93% 29.96 in 3.0 mi NE 5.8 mph - N/A   Overcast
2:35 PM 46.4 °F 44.3 °F 44.6 °F 93% 29.98 in 1.0 mi NNE 4.6 mph - N/A Rain Rain
2:55 PM 46.4 °F 43.5 °F 44.6 °F 93% 29.98 in 1.2 mi NNE 5.8 mph - 0.02 in Rain Heavy Rain
3:15 PM 46.4 °F 44.3 °F 44.6 °F 93% 29.98 in 3.0 mi NE 4.6 mph - N/A   Light Drizzle
3:35 PM 46.4 °F 43.5 °F 44.6 °F 93% 29.97 in 4.0 mi NNE 5.8 mph - N/A   Overcast
3:55 PM 46.4 °F 43.5 °F 44.6 °F 93% 29.97 in 4.0 mi NE 5.8 mph - N/A   Overcast
4:15 PM 46.4 °F 42.9 °F 44.6 °F 93% 29.97 in 3.0 mi NNE 6.9 mph - N/A   Overcast
4:35 PM 46.4 °F 42.4 °F 44.6 °F 93% 29.97 in 2.5 mi North 8.1 mph - N/A   Overcast
9:15 PM 46.4 °F 41.5 °F 44.6 °F 93% 30.03 in 10.0 mi NNW 10.4 mph - 0.01 in Rain Rain
9:35 PM 46.4 °F 41.5 °F 44.6 °F 93% 30.04 in 4.0 mi North 10.4 mph - 0.05 in Rain Rain
9:55 PM 46.4 °F 41.1 °F 44.6 °F 93% 30.06 in 7.0 mi NW 11.5 mph - 0.07 in Rain Light Rain
10:15 PM 46.4 °F 40.1 °F 44.6 °F 93% 30.05 in 7.0 mi NNW 15.0 mph - 0.01 in Rain Rain
10:35 PM 46.4 °F 40.4 °F 44.6 °F 93% 30.07 in 7.0 mi NNW 13.8 mph - 0.04 in Rain Heavy Rain
10:55 PM 46.4 °F 40.4 °F 46.4 °F 100% 30.08 in 10.0 mi North 13.8 mph - 0.09 in Rain Rain
11:15 PM 48.2 °F - 46.4 °F 93% 30.07 in 7.0 mi North 13.8 mph - 0.05 in Rain Rain
11:35 PM 48.2 °F - 46.4 °F 93% 30.08 in 5.0 mi North 11.5 mph - 0.15 in Rain Heavy Rain